Weather History for KFNB - October, 2011

Change the Weather History Date:

Sunday, October 16, 2011

  Actual Average Record
Temperature  
Mean Temperature 60 °F -  
Max Temperature 68 °F 67 °F 87 °F (1958)
Min Temperature 48 °F 41 °F 25 °F (1966)
Degree Days  
Heating Degree Days 6    
Growing Degree Days 10 (Base 50)    
Moisture  
Dew Point 42 °F    
Average Humidity 55    
Maximum Humidity 72    
Minimum Humidity 37    
Precipitation  
Precipitation 0.00 in - - ()
Sea Level Pressure  
Sea Level Pressure 29.95 in    
Wind  
Wind Speed 10 mph (NNW)    
Max Wind Speed 17 mph    
Max Gust Speed 26 mph    
Visibility 10 miles    
Events      
Averages and records for this station are not official NWS values.
T = Trace of Precipitation, MM = Missing Value Source: NWS Daily Summary

Daily Weather History Graph

Daily Weather History Graph

Search for Another Location

Airport or City:

Trip Planner

Search our weather history database for the weather conditions in past years. The results will help you decide how hot, cold, wet, or windy it might be!

Date:

Astronomy

Oct. 16, 2011 Rise Set
Actual Time 7:33 AM CDT 6:41 PM CDT
Civil Twilight 7:06 AM CDT 7:08 PM CDT
Nautical Twilight 6:34 AM CDT 7:40 PM CDT
Astronomical Twilight 6:03 AM CDT 8:11 PM CDT
Moon 9:28 PM CDT (10/16) 11:51 AM CDT (10/16)
Length of Visible Light 12h 02m
Length of Day
11h 07m
Waning Gibbous, 82% of the Moon is Illuminated
Oct 16
Waning Gibbous
Oct 19
Last Quarter
Oct 26
New
Nov 2
First Quarter
Nov 10
Full

Hourly Weather History & Observations

Time (CDT) Temp. Dew Point Humidity Pressure Visibility Wind Dir Wind Speed Gust Speed Precip Events Conditions
12:53 AM 66.9 °F 48.9 °F 52% 29.74 in 10.0 mi SSW 13.8 mph 18.4 mph N/A   Clear
1:53 AM 68.0 °F 50.0 °F 52% 29.73 in 10.0 mi SW 11.5 mph 19.6 mph N/A   Clear
2:53 AM 66.9 °F 51.1 °F 57% 29.72 in 10.0 mi SW 12.7 mph 20.7 mph N/A   Clear
3:53 AM 68.0 °F 52.0 °F 56% 29.77 in 10.0 mi NNW 12.7 mph 25.3 mph N/A   Clear
4:53 AM 64.9 °F 51.1 °F 61% 29.78 in 10.0 mi NW 3.5 mph - N/A   Clear
5:53 AM 60.8 °F 50.0 °F 68% 29.81 in 10.0 mi WNW 5.8 mph - N/A   Clear
6:53 AM 57.9 °F 48.9 °F 72% 29.83 in 10.0 mi WNW 8.1 mph - N/A   Clear
7:53 AM 57.9 °F 46.0 °F 65% 29.92 in 10.0 mi NNW 11.5 mph 26.5 mph N/A   Clear
8:53 AM 52.0 °F 39.9 °F 63% 29.97 in 10.0 mi NNW 13.8 mph 23.0 mph N/A   Clear
9:53 AM 55.0 °F 41.0 °F 59% 30.00 in 10.0 mi North 17.3 mph 21.9 mph N/A   Clear
10:53 AM 57.0 °F 41.0 °F 55% 30.03 in 10.0 mi North 13.8 mph 21.9 mph N/A   Clear
11:53 AM 62.1 °F 39.9 °F 44% 30.03 in 10.0 mi North 13.8 mph 23.0 mph N/A   Clear
12:53 PM 60.1 °F 37.9 °F 44% 30.04 in 10.0 mi North 15.0 mph 23.0 mph N/A   Clear
1:53 PM 61.0 °F 39.0 °F 44% 30.02 in 10.0 mi North 15.0 mph 19.6 mph N/A   Clear
2:53 PM 63.0 °F 37.9 °F 40% 30.01 in 10.0 mi North 9.2 mph 17.3 mph N/A   Clear
3:53 PM 63.0 °F 36.0 °F 37% 30.01 in 10.0 mi North 10.4 mph 18.4 mph N/A   Clear
4:53 PM 60.1 °F 37.0 °F 42% 30.03 in 10.0 mi North 9.2 mph - N/A   Clear
5:53 PM 57.9 °F 37.0 °F 46% 30.03 in 10.0 mi North 8.1 mph - N/A   Clear
6:53 PM 55.9 °F 37.9 °F 51% 30.03 in 10.0 mi Calm Calm - N/A   Clear
7:53 PM 55.0 °F 37.9 °F 53% 30.04 in 10.0 mi Calm Calm - N/A   Clear
8:53 PM 52.0 °F 39.9 °F 63% 30.04 in 10.0 mi WNW 4.6 mph - N/A   Clear
9:53 PM 52.0 °F 39.0 °F 61% 30.04 in 10.0 mi Calm Calm - N/A   Clear
10:53 PM 51.1 °F 39.0 °F 63% 30.04 in 10.0 mi NNW 4.6 mph - N/A   Clear
11:53 PM 48.0 °F 39.0 °F 71% 30.03 in 10.0 mi North 3.5 mph - N/A   Clear